Starlink 35573

operational
NORAD ID: 66116 Int'l Des: 2025-237 Owner: SPXS Country: US Constellation: starlink
LEOCIRCULAR

关于 Starlink 35573

正在加载描述...

实时位置

正在加载3D地球...

即将过境

高度历史

Altitude vs Time

uPlot chart will show altitude changes over time

两行轨道根数

1 66116C 25237C 25298.72548611 -.01136300 00000+0 -20119-2 0 2981
2 66116 53.1553 319.2511 0001000 67.3387 137.1168 16.02327744 15
Epoch: Oct 25, 2025 • Age: 152 hours

当前状态

高度 298.5 km
速度 7.74 km/s
星下点 51.70°N, 122.42°W
发射日期 Oct 22, 2025
运行时间 8 days
类型 internet

技术详情

分类 Payload
质量 575.00 kg
干质量 530.00 kg
总质量 575.00 kg
长度 0.30 m
直径 4.10 m
跨度 29.00 m
形状 Box + pan
制造商 SPXS
平台类型 Starlink V2MO
阶段状态 In Orbit
所有者/国家 SPXS/US

大型星座

Loading constellations...